Location: Mountain View
(37.3861°N, 122.0839°W)
Time: 01:25:08
(UTC-08:00)

Tiangong 2 - Visible Passes

Search period start: 19 February 2019 00:00
Search period end: 01 March 2019 00:00
Orbit: 381 x 390 km, 42.8° (Epoch: 19 February)

Date Brightness Start Highest point End Pass type
(mag) Time Alt. Az. Time Alt. Az. Time Alt. Az.
19 Feb 1.1 18:53:14 10° WNW 18:56:24 79° SSW 18:58:11 23° ESE visible
20 Feb 3.1 19:31:11 10° W 19:33:43 22° SW 19:34:28 20° SSW visible
21 Feb 2.2 18:31:35 10° WNW 18:34:36 41° SSW 18:37:36 10° SE visible
22 Feb 4.1 19:10:29 10° WSW 19:11:45 12° SW 19:13:00 10° SSW visible
